Regional Weather Roundup
Issued by NWS

Home | Current Version | Previous Version | Text Only | Print | Product List | Glossary On
Versions: 1 2 3 4 5 6 7 8 9 10 11 12 13 14 15 16 17 18 19 20 21 22 23 24 25 26 27 28 29 30 31 32 33 34 35 36 37 38 39 40 41 42 43 44 45 46 47 48 49 50
000
ASUS43 KLMK 011210
RWRKY
KENTUCKY REGIONAL WEATHER ROUNDUP
NATIONAL WEATHER SERVICE LOUISVILLE KY
700 AM EST SUN MAR 01 2015

NOTE "FAIR" INDICATES FEW OR NO CLOUDS BELOW 12,000 FEET
WITH NO SIGNIFICANT WEATHER AND/OR OBSTRUCTIONS TO VISIBILITY.

KYZ001>023-026-027-061>063-070>075-011300-
WESTERN AND SOUTH CENTRAL KENTUCKY

CITY           SKY/WX    TMP DP  RH WIND       PRES   REMARKS
PADUCAH        CLOUDY    32  26  78 NE3       30.37R
HENDERSON      CLOUDY    32  23  69 SE8       30.36F WCI  25
OWENSBORO      CLOUDY    32  27  82 SE6       30.38S WCI  26
HOPKINSVILLE   DRIZZLE   36  27  69 E5        30.35F WCI  32
BOWLING GREEN  CLOUDY    37  28  70 NE3       30.38S
GLASGOW        CLOUDY    36  30  77 CALM      30.38R
$$

KYZ024-025-028>034-038-045-046-053-011300-
NORTH CENTRAL KENTUCKY

CITY           SKY/WX    TMP DP  RH WIND       PRES   REMARKS
LOUISVILLE/SDF LGTSLEET  32  26  78 E6        30.39F WCI  26
LOUISVILLE/LOU MIX PCPN  31  26  82 E3        30.40F
FORT KNOX      FRZ RAIN  29  26  88 N5        30.36F WCI  24
$$

KYZ035>037-039>044-047>052-055>060-089>105-011300-
NORTHEAST KENTUCKY

CITY           SKY/WX    TMP DP  RH WIND       PRES   REMARKS
LEXINGTON      CLOUDY    34  26  72 SE8       30.38F WCI  27
COVINGTON      FRZ DRZL  29  24  82 S5        30.37F WCI  24
FRANKFORT      MIX PCPN  31  24  75 CALM      30.38S
$$

KYZ054-064>069-076>088-106>120-011300-
SOUTHEAST KENTUCKY

CITY           SKY/WX    TMP DP  RH WIND       PRES   REMARKS
JACKSON        CLOUDY    36  25  64 CALM      30.39R
LONDON         CLOUDY    37  26  64 CALM      30.40R
SOMERSET       CLOUDY    39  28  65 CALM      30.41F
MIDDLESBORO    CLOUDY    37  28  71 SE3       30.42F
MONTICELLO     CLOUDY    43  34  70 CALM      30.42S
$$




USA.gov is the U.S. government's official web portal to all federal, state and local government web resources and services.